Location: Thouarc�
(47.2667°N, 0.5000°W)
Time: 03:39:46
(UTC+01:00)

ISS - Visible Passes

Search period start: 24 March 2023 00:00
Search period end: 03 April 2023 01:00
Orbit: 414 x 422 km, 51.6° (Epoch: 23 March)

Date Brightness Start Highest point End Pass type
(mag) Time Alt. Az. Time Alt. Az. Time Alt. Az.
24 Mar -2.6 20:16:44 10° WNW 20:19:54 38° N 20:22:46 12° ENE visible
24 Mar -1.8 21:53:48 10° WNW 21:55:42 29° NW 21:55:42 29° NW visible
25 Mar -3.0 21:05:52 10° WNW 21:09:06 43° N 21:09:43 38° NE visible
26 Mar -2.7 21:17:53 10° WNW 21:21:04 38° N 21:23:43 13° ENE visible
26 Mar -1.9 22:54:44 10° WNW 22:56:39 31° WNW 22:56:39 31° WNW visible
27 Mar -3.7 22:06:46 10° WNW 22:10:06 66° NNE 22:10:36 55° ENE visible
28 Mar -3.3 21:18:46 10° WNW 21:22:03 51° NNE 21:24:34 16° E visible
28 Mar -1.8 22:55:38 10° WNW 22:57:30 27° W 22:57:30 27° W visible
29 Mar -3.6 22:07:32 10° WNW 22:10:51 63° SSW 22:11:27 50° SSE visible
30 Mar -3.8 21:19:27 10° WNW 21:22:48 89° NNE 21:25:25 16° ESE visible
30 Mar -1.3 22:56:52 10° W 22:58:21 16° WSW 22:58:21 16° WSW visible
31 Mar -2.2 22:08:23 10° W 22:11:17 27° SW 22:12:21 23° S visible
01 Apr -2.8 21:20:04 10° WNW 21:23:16 42° SW 21:26:22 10° SE visible
02 Apr -1.0 22:10:06 10° WSW 22:11:23 12° SW 22:12:39 10° SSW visible
